TIME,DELAY(SENSOR),PRES,OXYGEN,RAWTEMP,T(OPTODE),TCPHASE,FLUOR,BETA(BETA700),BETA(BETA412),BETA(BETA440),CDOM,C(CSC),ED(ED412.40),ED(ED444.00),ED(ED489.70),ED(ED554.30),LU(LU411.80),LU(LU443.40),LU(LU489.60),LU(LU554.10),COMP,TILTX,TILTY,CHECK
1380772163,5810,825.8699951171875000,46.2932701110839840,660.4918212890625000,4.6117820739746090,54.0727195739746100,52,100,88,79,79,15227,2147750180,2147429074,2148013952,2147872713,2147640676,2147052388,2148269440,2147193206,3297,4,13,20470
1380775759,5808,908.2700195312500000,48.0891609191894500,667.3355712890625000,4.3861727714538570,53.9011802673339840,51,98,83,78,79,15250,2147753755,2147425417,2148012992,2147874304,2147640676,2147049737,2148266587,2147198482,51,4,13,42643
1380779359,5806,918.4400024414062000,47.6154785156250000,666.9118041992188000,4.4001579284667970,53.9642181396484400,53,98,85,77,78,15225,2147753956,2147423780,2148015058,2147872694,2147643245,2147053147,2148258304,2147196818,3571,4,13,59092
1380782959,5810,941.9199829101562000,48.7983818054199200,669.5095825195312000,4.3143959045410160,53.8278999328613300,52,99,85,80,79,15232,2147750454,2147426944,2148015579,2147874249,2147641389,2147050523,2148265846,2147198189,509,4,13,48867
1380786559,5808,953.7899780273438000,49.2322692871093750,669.8331298828125000,4.3037128448486330,53.7745895385742200,53,98,84,78,78,15239,2147753298,2147426368,2148011940,2147870363,2147643629,2147052516,2148269869,2147196324,3459,4,13,34283
1380790159,5809,946.3300170898438000,49.1589088439941400,670.3295288085938000,4.2873120307922360,53.7900199890136700,53,99,83,80,79,15242,2147753819,2147423021,2148014857,2147874276,2147641874,2147056091,2148262674,2147198628,93,4,13,9650
1380793759,5807,976.9299926757812000,51.4827804565429700,673.9774169921875000,4.1667189598083500,53.5144882202148440,53,97,86,79,79,15218,2147755757,2147423670,2148013696,2147872950,2147643556,2147052498,2148264795,2147198144,346,4,13,34273
1380797359,5809,978.8699951171875000,51.6304588317871100,673.8317871093750000,4.1715350151062010,53.4988594055175800,52,98,86,78,79,15218,2147753389,2147427145,2148012480,2147875355,2147637714,2147052580,2148266075,2147197650,345,4,13,27774
1380800959,5812,977.0800170898438000,51.1552810668945300,673.8433837890625000,4.1711502075195310,53.5588912963867200,52,96,85,78,78,15220,2147754916,2147424667,2148014125,2147875309,2147640448,2147051328,2148267382,2147197403,24,4,13,50611
1380804559,5809,977.8200073242188000,51.4804916381835940,674.7520141601562000,4.1410918235778810,53.5252189636230500,52,97,86,79,79,15221,2147752877,2147423707,2148015140,2147873618,2147641792,2147055268,2148266304,2147193828,3403,4,13,28632
1380808159,5806,975.9400024414062000,51.7335205078125000,675.1079711914062000,4.1293129920959470,53.5004806518554700,52,97,87,78,78,15222,2147752740,2147425536,2148014281,2147873883,2147640448,2147054034,2148263341,2147194624,3592,4,13,45689
1380811759,5807,974.4799804687500000,51.6012687683105500,675.2548217773438000,4.1244559288024900,53.5189208984375000,52,100,87,79,79,15218,2147754523,2147428160,2148015707,2147871149,2147641014,2147049216,2148264448,2147196388,3499,4,13,32010
1380815359,5807,974.6500244140625000,51.5080986022949200,675.8635864257812000,4.1043028831481930,53.5394287109375000,52,96,88,79,79,15218,2147752914,2147423369,2148014656,2147872649,2147643712,2147047414,2148264859,2147198838,861,4,13,55585
1380818959,5807,981.0599975585938000,51.6011390686035160,675.5001220703125000,4.1163349151611330,53.5221099853515600,52,98,85,79,80,15219,2147753554,2147423872,2148014793,2147871753,2147637220,2147054098,2148266569,2147195044,3380,4,13,28943
1380822559,5809,981.6400146484375000,51.4359588623046900,674.4274291992188000,4.1518330574035645,53.5287590026855500,52,118,83,79,78,15220,2147757147,2147425572,2148014198,2147871067,2147642267,2147052790,2148268662,2147199040,3545,4,13,56966
1380826159,5812,985.1099853515625000,51.6187705993652340,674.7935180664062000,4.1397190093994140,53.5083084106445300,52,98,86,80,79,15218,2147753490,2147425773,2148015040,2147872950,2147639945,2147057737,2148266157,2147195757,3467,4,13,48617
1380829759,5806,986.9500122070312000,50.9338912963867200,673.9171142578125000,4.1687130928039550,53.5906600952148440,52,97,88,78,79,15217,2147755117,2147425545,2148013558,2147872594,2147641389,2147055186,2148260032,2147200338,3448,4,13,14787
1380833359,5807,985.2100219726562000,51.0620498657226560,673.7020263671875000,4.1758289337158200,53.5728607177734400,52,100,81,79,78,15218,2147755108,2147425426,2148013750,2147876141,2147644882,2147050011,2148262208,2147199716,3124,4,13,58221
1380836959,5810,988.2899780273438000,51.1637916564941400,673.9586181640625000,4.1673388481140140,53.5604515075683600,52,98,85,78,78,15218,2147758528,2147425956,2148011675,2147876800,2147642980,2147048996,2148260946,2147199113,39,4,13,2965
1380840559,5810,982.4199829101562000,51.0268287658691400,673.9317016601562000,4.1682300567626950,53.5810585021972660,52,99,86,78,79,15217,2147753920,2147423981,2148014491,2147870692,2147642523,2147052196,2148260571,2147199186,2994,4,13,18882
1380844159,5807,984.7199707031250000,50.8080711364746100,674.1491699218750000,4.1610360145568850,53.6145782470703100,53,97,87,79,79,15216,2147756918,2147424557,2148011885,2147872795,2147639908,2147053668,2148262290,2147195465,490,4,13,57936
1380847759,5810,987.7500000000000000,51.5151481628418000,674.6854248046875000,4.1432948112487790,53.5211601257324200,53,100,88,78,78,15216,2147755684,2147427346,2148015158,2147873334,2147640164,2147051574,2148261888,2147197952,35,4,13,42454
1380851359,5812,981.4099731445312000,51.0201988220214840,674.9998168945312000,4.1328949928283690,53.5962104797363300,53,98,85,78,80,15214,2147753892,2147426477,2148010770,2147873590,2147641115,2147053924,2148262774,2147196635,74,4,13,39359
1380854959,5805,983.1699829101562000,51.4472389221191400,674.8582763671875000,4.1375751495361330,53.5374412536621100,53,100,86,78,79,15214,2147753856,2147423670,2148012544,2147874057,2147642633,2147056219,2148266176,2147197915,3278,4,13,28402
1380858559,5809,984.4199829101562000,50.9709091186523440,674.9733886718750000,4.1337680816650390,53.6005516052246100,52,99,88,77,80,15212,2147755117,2147424896,2148011081,2147872804,2147641344,2147052653,2148260653,2147195648,3474,4,13,22952
1380862159,5807,988.0200195312500000,50.7494888305664060,674.7108764648438000,4.1424517631530760,53.6283302307128900,52,98,86,77,78,15216,2147754532,2147424082,2148010944,2147875328,2147642459,2147050678,2148262299,2147198537,3542,4,13,26571
1380865759,5808,988.3400268554688000,50.4481887817382800,675.1840820312500000,4.1267929077148440,53.6761817932128900,51,98,84,78,78,15216,2147753472,2147425115,2148012580,2147874349,2147641206,2147048036,2148264192,2147197430,350,4,13,11536
1380869359,5806,998.2299804687500000,51.0349884033203100,673.6901245117188000,4.1762218475341800,53.5723915100097660,52,103,84,78,79,15213,2147751771,2147425161,2148009252,2147878646,2147643090,2147053641,2148263378,2147197120,3394,4,13,31780
1380872959,5809,993.6599731445312000,50.5901489257812500,673.5983886718750000,4.1792559623718260,53.6343803405761700,51,97,84,78,79,15215,2147757494,2147425353,2148012022,2147872502,2147643117,2147056310,2148264265,2147198491,293,4,13,37261
1380876559,5809,991.6400146484375000,50.7830200195312500,673.6132202148438000,4.1787657737731930,53.6051902770996100,52,99,82,78,77,15213,2147752704,2147427328,2148014509,2147874569,2147641581,2147050020,2148266267,2147197138,367,4,13,44702
1380880159,5810,990.2899780273438000,50.5910110473632800,674.7365112304688000,4.1416068077087400,53.6496009826660160,53,98,87,77,79,15210,2147751049,2147426715,2148008932,2147873014,2147642368,2147053769,2148258221,2147193910,3567,3,13,16208
1380883759,5808,989.7000122070312000,50.5599899291992200,675.1115112304688000,4.1291980743408200,53.6564598083496100,52,101,83,78,78,15211,2147753974,2147426395,2148013531,2147875264,2147640877,2147053147,2148260745,2147193115,15,4,13,20317
1380887359,5809,976.4500122070312000,50.9658813476562500,676.0723266601562000,4.0973968505859375,53.6118812561035160,53,98,85,79,78,15211,2147753417,2147429065,2148014400,2147874221,2147640182,2147050806,2148258285,2147196370,580,4,13,17373
1380890959,5810,984.9199829101562000,50.7041702270507800,676.2476806640625000,4.0915889739990230,53.6492691040039060,52,97,82,79,79,15207,2147751844,2147424685,2148010468,2147876763,2147642038,2147052315,2148261220,2147198537,3461,4,13,12424
1380894559,5810,985.5300292968750000,51.2408905029296900,676.1087036132812000,4.0961909294128420,53.5778884887695300,52,97,82,78,78,15212,2147753353,2147423259,2148012982,2147873654,2147643867,2147050779,2148262189,2147197339,242,4,13,50613
1380898159,5810,984.3200073242188000,50.9122695922851560,675.3515014648438000,4.1212539672851560,53.6105995178222660,53,98,87,79,79,15210,2147752987,2147428955,2148010715,2147875584,2147641572,2147050313,2148266578,2147199780,124,4,13,27961
1380901759,5807,984.9199829101562000,50.9012107849121100,675.6632080078125000,4.1109371185302730,53.6189613342285160,52,96,85,78,79,15210,2147755090,2147425179,2148013760,2147873947,2147643090,2147053577,2148263369,2147202084,237,4,13,41869
1380905359,5807,985.6699829101562000,50.7014503479003900,676.1129150390625000,4.0960540771484375,53.6522903442382800,52,97,83,77,79,15212,2147754166,2147422061,2148013778,2147876726,2147641709,2147054793,2148265161,2147202742,3495,3,13,489
1380908959,5807,987.2899780273438000,50.8907012939453100,676.0463867187500000,4.0982527732849120,53.6243286132812500,52,98,85,79,78,15210,2147753499,2147428745,2148013577,2147874130,2147640237,2147047808,2148263606,2147201398,3328,4,13,53859
1380912559,5810,985.8400268554688000,51.2411499023437500,675.4199218750000000,4.1189918518066410,53.5694084167480500,52,99,86,79,79,15211,2147752612,2147423177,2148015497,2147871826,2147641636,2147050185,2148260937,2147195657,431,4,13,29661
1380916159,5807,985.4600219726562000,51.1934890747070300,675.6906738281250000,4.1100268363952640,53.5808601379394500,53,96,87,78,78,15208,2147757330,2147427236,2148014354,2147873892,2147641133,2147049243,2148263186,2147196864,3501,4,13,44182
1380916556,5805,984.7500000000000000,51.1249008178710940,675.7169189453125000,4.1091609001159670,53.5904884338378900,52,99,83,78,78,15249,2147755666,2147424475,2148013449,2147876644,2147644297,2147052342,2148265846,2147198153,456,4,13,36865
